Terminal Aerodrome Forecast
Issued by NWS Cleveland, OH

Home | Current Version | Previous Version | Text Only | Print | Product List | Glossary Off
Versions: 1 2 3 4 5 6 7 8 9 10 11 12 13 14

000
FTUS41 KCLE 201100
TAFERI
TAF
KERI 201130Z 2012/2112 27003KT P6SM OVC025
     FM201900 01003KT P6SM OVC030=

USA.gov is the U.S. government's official web portal to all federal, state and local government web resources and services.